EDVK

Kassel-Calden Airport

Airport
ICAO code
EDVK
Summary
ICAO Region
EUR
ICAO Territory
Location

Kassel, Germany,

Coordinates
51° 25' 2" N , 9° 23' 6" E
KCC
Airport WX
Fog
Metar
Observation
EDVK 031950Z AUTO 30017G30KT 270V330 9999 // BKN025/// BKN044/// 06/02 Q1024
Station
Kassel / Calden
Date/Time
2023-02-03 19:50:00
Wind direction
300°
Wind speed
17 kts
Lowest cloud amount
broken clouds
Temperature
6°C
Dew point
2°C
Humidity
75%
QNH
1024 hPa
Weather condition
n/a

Description

Located 16.7 Km northwest of the German city of Kassel, the airport is home to a flying school.

Climatology

Temperate Marine climate/Oceanic climate (Köppen climate classification Cfb). Moderately cool summer and comparatively warm winter with a temperature range of only 14°C. Prevailing south-westerly winds from the Atlantic Ocean.

Runways

Designator Length Width Surface Rops
04L/22R 700 30 GRS No/No
4/22 1500 30 ASP No/No

Airport map

Aerial View

Airport accidents

SKYbrary Partners:

Safety knowledge contributed by: